カタログに戻る

COSMOS 1818 COOLANT

LostLEO
NORAD 36933·DEBRIS·🇷🇺 Russia

打ち上げ Feb 1, 1987 から Baikonur Cosmodrome

Loading…

次のパス (今後24時間)

TLE

古いSource: Space-Track

元期: Jan 6, 2022, 10:59 UTC

1 36933U 87011M   22006.45832574  .00000198  00000-0  10527-3 0  9995
2 36933  65.0089  75.6713 0022013 259.2949 100.5658 14.34694594649699

AllMySatでCOSMOS 1818 COOLANTをリアルタイム追跡

Download on the App Store